Hourly Data Report for June 24, 2020

BORDEN AWOS
ONTARIO
Current Station Operator: DND

44°16'20.000" N
79°54'42.000" W
222.50 m
611B002
71534
YBN

Download Data

Hourly Data (June 2020)
Hourly Data Report for June 24, 2020
TIME
LST
Temp Definition
°C
Dew Point Definition
°C
Rel Hum Definition
%
Precip. Amount Definition
mm

Wind Dir Definition
10's deg

Wind Spd Definition
km/h
Visibility Definition
km
Stn Press Definition
kPa
Hmdx Definition


Wind Chill Definition


Weather Definition


00:00 16.3 13.0 81   24 24 14.5 97.37     LegendNANA
01:00 16.0 12.6 80   22 20 14.5 97.38     LegendNANA
02:00 15.5 12.5 82   21 19 14.5 97.39     LegendNANA
03:00 14.9 12.3 84   23 19 14.5 97.40     LegendNANA
04:00 14.7 12.2 85   24 9 14.5 97.43     LegendNANA
05:00 14.4 11.8 84   25 11 14.5 97.47     LegendNANA
06:00 14.5 10.8 79   25 24 14.5 97.59     LegendNANA
07:00 14.3 9.8 74   26 26 14.5 97.68     LegendNANA
08:00 14.6 10.3 75   26 24 14.5 97.74     LegendNANA
09:00 15.1 10.1 72   27 30 14.5 97.79     LegendNANA
10:00 15.3 10.3 72   26 24 14.5 97.86     LegendNANA
11:00 17.4 10.0 62   29 28 14.5 97.91     LegendNANA
12:00 19.7 10.0 54   25 35 14.5 97.92     LegendNANA
13:00 19.5 10.6 56   26 22 14.5 97.98     LegendNANA
14:00 19.4 9.9 54   25 24 14.5 98.03     LegendNANA
15:00 19.4 10.7 57   26 26 14.5 98.04     Rain
16:00 16.8 11.4 71   32 22 14.5 98.08     Rain
17:00 19.5 11.4 60   26 9 14.5 98.06     LegendNANA
18:00 17.7 11.7 68   23 15 14.5 98.12     LegendNANA
19:00 17.7 12.2 70   23 11 14.5 98.15     LegendNANA
20:00 15.9 12.0 78   22 9 14.5 98.14     LegendNANA
21:00 15.3 12.1 81   22 7 14.5 98.19     LegendNANA
22:00 14.7 11.8 83   23 6 14.5 98.22     LegendNANA
23:00 12.9 10.9 88   23 11 14.5 98.28     LegendNANA

Notes on Data Quality.

Legend

  • E = Estimated
  • M = Missing
  • NA = Not Available*
  • [empty] = Indicates an unobserved value
Date modified: